Location: Coopersdale
(40.3556°N, 78.9372°W)
Time: 01:26:01
(UTC+00:00)

Tiros 1 despin weight - Pass Details

Date: 28 January 2021
Orbit: 593 x 642 km, 48.2° (Epoch: 02 March)

Event Time Altitude Azimuth Distance (km) Brightness Sun altitude
Rises 19:25:43 0° 269° (W) 2,901 ? 25.6°
Reaches altitude 10° 19:28:11 10° 277° (W) 1,987 ? 25.4°
Maximum altitude 19:32:25 37° 345° (NNW) 964 ? 25.0°
Drops below altitude 10° 19:36:37 10° 54° (NE) 1,961 ? 24.5°
Sets 19:39:03 0° 63° (ENE) 2,857 ? 24.3°
